Probability
0 0 0 0 0 0 0 0 0 0 0 0 0 0 0 0 0 0 0 0 0 0 0 0 0 0 0 0 0 0 0 0 0 0 0 0 0 0
0 0 0 0 0 0 0 0 0 0 0 0 0 0 0 0 0 0 0 0 0 0 0 0 0 0 0 0 0 0 0 0 0 0 0 0 0 0
0 0 0 0 0 0 0 0 0 0 0 0 0 0 0 0 0 0 0 0 0 0 0 0 0 0 0 0 0 0 0 0 0 0 0 0 0 0
0 0 0 0 0 0 0 0 0 0 0 0 0 0 0 0 0 0 0 0 0 0 0 0 0 0 0 0 0 0 0 0 0 0 0 0 0 0
0 0 0 0 0 0 0 0 0 0 0 0 0 0 0 0 0 0 0 0 0 0 0 0 0 0 0 0 0 0 0 0 0 0 0 0 0 0
0 0 0 0 0 0 0 0 0 0 0 0 0 0 0 0 0 0 0 0 0 0 0 0 0 0 0 0 0 0 0 0 0 0 0 0 0 0
0 0 0 0 0 0 0 0 0 0 0 0 0 0 0 0 0 0 0 0 0 0 0 0 0 0 0 0 0 0 0 0 0 0 0 0 0 0
0 0 0 0 0 0 0 0 0 0 0 0 0 0 0 0 0 0 0 0 0 0 0 0 0 0 0 0 0 0 0 0 0 0 0 0 0 0
0 0 0 0 0 0 0 0 0 0 0 0 0 0 0 0 0 0 0 0 0 0 0 0 0 0 0 0 0 0 0 0 0 0 0 0 0 0
0 0 0 0 0 0 0 0 0 0 0 0 0 0 0 0 0 0 0 0 0 0 0 0 0 0 0 0 0 0 0 0 0 0 0 0 0 0
0 0 0 0 0 0 0 0 0 0 0 0 0 0 0 0 0 0 0 0 0 0 0 0 0 0 0 0 0 0 0 0 0 0 0 0 0 0
0 0 0 0 0 0 0 0 0 0 0 0 0 0 0 0 0 0 0 0 0 0 0 0 0 0 0 0 0 0 0 0 0 0 0 0 0 0
0 0 0 0 0 0 0 0 0 0 0 0 0 0 0 0 0 0 0 0 0 0 0 0 0 0 0 0 0 0 0 0 0 0 0 0 0 0
0 0 0 0 0 0 0 0 0 0 0 0 0 0 0 0 0 0 0 0 0 0 0 0 0 0 0 0 0 0 0 0 0 0 0 0 0 0
0 0 0 0 0 0 0 0 0 0 0 0 0 0 0 0 0 0 0 0 0 0 0 0 0 0 0 0 0 0 0 0 0 0 0 0 0 0
0 0 0 0 0 0 0 0 0 0 0 0 0 0 0 0 0 0 0 0 0 0 0 0 0 0 0 0 0 0 0 0 0 0 0 0 0 0
0 0 0 0 0 0 0 0 0 0 0 0 0 0 0 0 0 0 0 0 0 0 0 0 0 0 0 0 0 0 0 0 0 0 0 0 0 0
0 0 0 0 0 0 0 0 0 0 0 0 0 0 0 0 0 0 0 0 0 0 0 0 0 0 0 0 0 0 0 0 0 0 0 0 0 0
0 0 0 0 0 0 0 0 0 0 0 0 0 0 0 0 0 0 0 0 0 0 0 0 0 0 0 0 0 0 0 0 0 0 0 0 0 0
0 0 0 0 0 0 0 0 0 0 0 0 0 0 0 0 0 0 0 0 0 0 0 0 0 0 0 0 0 0 0 0 0 0 0 0 0 0
0 0 0 0 0 0 0 0 0 0 0 0 0 0 0 0 0 0 0 0 0 0 0 0 0 0 0 0 0 0 0 0 0 0 0 0 0 0
0 0 0 0 0 0 0 0 0 0 0 0 0 0 0 0 0 0 0 0 0 0 0 0 0 0 0 0 0 0 0 0 0 0 0 0 0 0
0 0 0 0 0 0 0 0 0 0 0 0 0 0 0 0 0 0 0 0 0 0 0 0 0 0 0 0 0 0 0 0 0 0 0 0 0 0
Wind_Speed
1 1 1 1 1 2 2 3 3 1 1 2 1 1 1 1 2 2 2 5 6 6 6 7 7 7 8 8 8 9 9 9 9 9 9 9 9 9
1 1 1 1 1 1 2 1 2 3 1 1 1 1 1 1 1 1 2 4 5 5 5 5 5 6 6 7 7 8 8 8 8 8 8 8 8 8
0 1 1 1 1 1 1 2 2 2 2 1 1 1 0 1 1 1 1 1 2 4 4 4 4 4 4 5 5 6 6 6 6 7 7 7 6 6
1 1 1 1 1 1 1 2 2 2 3 2 1 0 0 0 1 1 1 1 1 3 3 3 3 3 4 4 4 5 5 6 6 6 6 6 6 5
2 2 2 2 1 1 2 2 2 2 2 2 1 0 0 1 1 1 2 2 2 2 2 2 3 3 2 3 3 3 4 4 5 5 5 5 5 5
1 2 2 2 2 2 2 2 2 2 2 2 1 0 0 0 1 0 1 2 2 2 3 3 3 3 3 3 2 2 3 3 4 4 4 5 5 5
1 1 2 2 3 3 2 3 3 2 2 2 1 0 1 1 1 1 1 1 1 1 1 2 2 2 2 3 3 3 3 3 3 3 4 4 4 4
1 1 1 1 2 3 4 4 5 4 4 3 2 2 2 2 1 2 1 0 1 1 1 2 1 2 2 1 2 3 3 2 2 2 3 3 3 4
2 1 1 0 0 1 1 2 3 4 5 4 4 4 3 4 3 2 2 2 2 1 1 1 1 1 2 2 2 2 2 2 2 2 2 3 3 3
2 2 1 1 1 2 2 1 1 2 3 3 4 4 3 3 4 3 3 2 1 1 1 1 1 2 2 2 2 1 1 1 2 2 2 2 3 3
2 2 2 2 2 2 3 2 1 1 1 2 2 2 3 4 4 3 2 1 1 2 1 2 1 1 1 2 2 2 2 1 1 2 2 2 2 3
1 1 3 3 3 3 3 3 2 2 1 0 1 2 1 0 4 3 3 2 1 2 2 2 1 1 1 2 1 1 2 2 2 2 2 2 2 1
1 1 2 3 4 4 4 3 4 2 2 1 0 1 1 1 0 1 1 2 2 3 2 3 1 1 1 2 2 1 1 1 1 2 3 3 2 0
3 2 2 3 4 4 3 3 3 3 2 2 1 0 1 1 1 1 1 1 2 3 2 3 2 2 2 1 2 2 1 1 1 2 2 3 3 3
3 4 3 4 3 2 3 3 3 2 2 1 1 1 2 2 1 0 0 0 1 2 1 2 2 2 2 3 2 2 2 2 2 2 2 2 2 2
2 2 2 2 1 1 2 1 1 2 2 2 2 1 0 0 0 1 1 0 1 2 2 1 2 3 2 3 2 3 2 2 2 2 2 3 3 2
2 1 1 1 1 1 0 0 1 1 1 1 1 1 1 1 1 1 0 0 1 2 2 2 1 1 2 2 2 3 3 3 3 2 2 3 3 3
4 2 2 2 2 2 2 1 1 2 2 2 2 2 2 1 1 0 0 1 2 2 2 2 1 1 1 2 4 4 3 3 3 2 2 3 4 3
3 3 3 3 3 3 2 2 2 2 2 2 2 2 2 2 1 1 1 1 2 3 3 1 1 1 2 4 3 3 3 3 2 2 2 3 4 4
3 3 3 3 3 3 3 2 2 2 2 2 2 2 2 2 2 2 2 2 2 2 2 2 2 3 4 4 3 2 3 2 2 3 3 2 3 4
3 3 3 3 3 3 3 3 3 3 3 2 2 3 3 2 2 2 2 3 2 2 3 4 4 4 2 1 2 3 2 2 2 2 2 2 2 2
3 3 3 3 3 3 3 3 3 3 3 3 3 3 2 2 3 3 2 2 2 3 3 3 2 1 1 2 3 4 3 2 2 3 2 1 1 2
4 3 3 3 3 3 3 3 3 3 3 3 3 3 3 2 2 2 2 2 2 2 2 2 2 1 1 2 2 3 3 3 2 2 2 4 4 5
Wind_Direction
178 167 163 173 163 169 161 161 152 160 287 293 312 325 325 347 12 27 23 35 41 42 44 44 44 44 42 41 40 39 38 37 37 38 37 35 34 36
182 157 159 176 151 144 165 163 155 156 192 256 244 281 318 36 45 28 23 20 33 38 39 37 39 41 40 39 38 37 36 34 33 34 34 33 32 33
274 164 205 193 154 150 146 144 150 140 152 264 286 303 31 11 4 16 20 358 7 25 30 30 32 35 36 34 32 32 32 30 27 26 25 24 25 28
238 191 221 177 148 158 154 164 173 168 155 174 253 342 312 310 347 -0 0 5 350 9 10 14 25 31 29 27 26 25 24 22 20 18 17 16 18 21
226 212 216 166 172 172 168 167 172 158 145 154 198 231 342 31 37 7 9 354 358 5 2 6 11 13 14 15 14 15 16 17 18 20 19 18 16 16
237 215 207 190 195 185 175 172 158 143 134 138 164 210 234 8 99 53 359 359 352 4 16 21 16 8 1 356 354 1 8 12 20 23 23 19 18 15
283 241 220 209 207 193 185 179 162 154 148 147 171 189 234 203 212 203 201 338 339 346 4 1 359 355 347 347 353 1 10 16 21 25 24 22 19 14
257 270 253 246 230 212 205 189 172 168 177 176 193 210 234 223 199 184 169 101 309 318 43 339 13 334 320 324 8 20 13 17 27 27 20 17 12 4
234 245 273 279 237 163 180 187 196 196 184 178 189 214 216 210 182 189 193 193 220 235 123 307 335 314 299 327 353 3 11 16 16 11 9 10 7 1
234 222 219 259 228 165 153 141 199 223 213 202 203 218 217 199 187 185 186 180 259 279 156 232 281 276 303 307 334 348 5 7 5 3 1 358 357 0
248 231 214 230 225 165 148 153 210 266 240 197 209 226 205 183 161 127 128 125 282 278 194 194 240 270 295 296 306 335 341 343 346 344 344 343 341 344
255 238 220 218 217 173 167 170 209 240 199 160 316 336 336 180 170 171 172 170 192 253 212 184 211 195 292 285 293 309 309 313 318 320 323 326 333 339
221 246 244 224 219 195 178 192 208 189 163 157 131 4 6 8 300 216 195 187 197 232 214 175 193 190 207 273 297 285 266 283 294 302 301 308 310 302
219 229 235 223 216 198 190 196 181 146 129 122 121 271 282 281 272 238 217 221 230 239 228 183 197 191 190 240 272 287 280 263 265 287 292 307 292 283
227 225 221 215 214 200 190 169 150 140 139 151 201 244 251 253 252 288 305 265 312 303 282 209 207 204 192 215 243 254 272 273 253 269 279 276 274 279
225 220 209 208 185 155 148 156 153 167 172 188 206 229 255 262 257 233 260 283 353 328 323 258 217 199 214 231 232 257 251 257 269 260 270 281 281 270
151 134 138 134 145 139 114 110 139 151 179 189 192 207 218 231 279 273 241 190 224 282 313 334 303 207 218 216 238 253 261 266 264 261 266 284 279 273
153 176 189 193 200 200 193 200 203 207 208 202 204 209 216 228 250 276 222 206 231 261 273 288 333 347 334 277 224 243 257 262 270 262 246 266 282 283
172 199 203 205 209 204 203 205 211 213 201 198 206 211 211 215 217 231 230 229 245 258 265 265 247 228 266 283 280 219 241 273 279 272 258 254 270 285
200 203 209 207 205 205 205 210 213 204 201 202 206 212 210 208 212 225 227 229 244 260 271 266 239 229 232 254 271 280 254 256 269 279 285 281 282 298
210 212 211 207 204 200 202 204 201 203 202 195 203 208 207 205 218 227 231 233 240 257 263 265 257 248 241 274 290 292 293 278 272 271 282 290 304 318
210 210 209 207 199 192 192 194 197 201 198 199 205 208 206 205 214 222 226 230 240 247 262 278 295 279 228 238 266 283 298 318 315 314 318 298 257 272
214 210 207 201 197 189 189 196 200 206 205 204 204 206 201 204 213 217 227 234 245 259 278 291 306 307 269 255 263 283 297 311 326 334 323 332 318 305